User: anonymous   Login
Location: S�o Paulo
(23.5330°S, 46.6170°W)
Time: 17:53:38
(UTC-02:00)
Language:

ISS - Orbit

View from above orbital plane
View from above orbital plane
View from above satellite
View from above satellite

Ground track
Ground track

The orbit data is extracted from the following two-line orbital elements,

1 25544U 98067A   18017.86382611  .00016717  00000-0  10270-3 0  9032
2 25544  51.6421  48.1103 0003580  16.4212 343.7056 15.54198369 15139
Epoch (UTC): 17 January 2018 20:43:54
Eccentricity: 0.0003580
inclination: 51.6421°
perigee height: 402 km
apogee height: 407 km
right ascension of ascending node: 48.1103°
argument of perigee: 16.4212°
revolutions per day: 15.54198369
mean anomaly at epoch: 343.7056°
orbit number at epoch: 1513

The dashed part of the orbit path shows where the satellite is in the earth's shadow,  

DLR